Location: Newark
(22.3060°N, 114.2134°E)
Time: 11:01:33
(UTC+00:00)

A-11 Canister half - All Passes

Search period start: 03 August 2021 00:00
Search period end: 13 August 2021 00:00
Orbit: 1527 x 1682 km, 47.3° (Epoch: 02 August)

Date Brightness Start Highest point End Pass type
(mag) Time Alt. Az. Time Alt. Az. Time Alt. Az.
03 Aug - 01:24:39 10° SW 01:34:46 84° SE 01:44:56 10° NE daylight
03 Aug - 03:32:04 10° W 03:40:44 31° NNW 03:49:23 10° NNE daylight
03 Aug - 05:43:59 10° NW 05:49:19 15° N 05:54:37 10° NNE daylight
03 Aug - 07:51:19 10° NNW 07:58:32 22° NNE 08:05:34 10° ENE daylight
03 Aug - 09:55:35 10° NW 10:05:18 65° NE 10:14:39 10° ESE daylight
03 Aug - 12:01:46 10° WNW 12:09:50 31° SW 12:17:44 10° S visible
03 Aug - 23:03:07 10° SSE 23:08:47 17° SE 23:14:28 10° E daylight
04 Aug - 01:02:59 10° SW 01:13:04 80° SE 01:23:14 10° NE daylight
04 Aug - 03:10:09 10° W 03:18:57 33° NNW 03:27:45 10° NNE daylight
04 Aug - 05:21:59 10° NW 05:27:26 15° N 05:32:50 10° NNE daylight
04 Aug - 07:29:38 10° NNW 07:36:42 21° NNE 07:43:37 10° ENE daylight
04 Aug - 09:33:54 10° NW 09:43:36 61° NE 09:52:57 10° ESE daylight
04 Aug - 11:39:55 10° WNW 11:48:13 34° SW 11:56:20 10° S visible
04 Aug - 22:42:04 10° SSE 22:47:08 15° ESE 22:52:12 10° E daylight
05 Aug - 00:41:22 10° SW 00:51:24 75° SE 01:01:31 10° NE daylight
05 Aug - 02:48:15 10° W 02:57:10 34° NNW 03:06:06 10° NNE daylight
05 Aug - 04:59:59 10° NW 05:05:33 16° N 05:11:04 10° NNE daylight
05 Aug - 07:07:56 10° NNW 07:14:53 20° NNE 07:21:40 10° ENE daylight
05 Aug - 09:12:14 10° NW 09:21:55 58° NE 09:31:14 10° ESE daylight
05 Aug - 11:18:04 10° WNW 11:26:36 36° SW 11:34:55 10° S visible
05 Aug - 22:21:10 10° SSE 22:25:29 13° ESE 22:29:49 10° E daylight
06 Aug - 00:19:44 10° SSW 00:29:43 71° SE 00:39:48 10° NE daylight
06 Aug - 02:26:21 10° W 02:35:23 36° NNW 02:44:27 10° NNE daylight
06 Aug - 04:37:58 10° NW 04:43:40 16° N 04:49:19 10° NNE daylight
06 Aug - 06:46:14 10° NNW 06:53:03 20° NNE 06:59:42 10° ENE daylight
06 Aug - 08:50:35 10° NW 09:00:12 55° NE 09:09:29 10° ESE daylight
06 Aug - 10:56:15 10° WNW 11:04:58 39° SW 11:13:29 10° SSE daylight
06 Aug - 22:00:29 10° SE 22:03:51 12° ESE 22:07:13 10° ESE daylight
06 Aug - 23:58:08 10° SSW 00:08:02 67° SE 00:18:05 10° NE daylight
07 Aug - 02:04:28 10° W 02:13:37 38° NW 02:22:49 10° NNE daylight
07 Aug - 04:15:57 10° NW 04:21:47 16° N 04:27:34 10° NNE daylight
07 Aug - 06:24:32 10° NNW 06:31:12 19° NNE 06:37:44 10° ENE daylight
07 Aug - 08:28:54 10° NW 08:38:30 52° NE 08:47:44 10° ESE daylight
07 Aug - 10:34:26 10° WNW 10:43:21 42° SW 10:52:01 10° SSE daylight
07 Aug - 21:40:19 10° SE 21:42:12 11° ESE 21:44:06 10° ESE visible
07 Aug - 23:36:33 10° SSW 23:46:22 63° SE 23:56:19 10° NE daylight
08 Aug - 01:42:35 10° WSW 01:51:51 39° NW 02:01:10 10° NNE daylight
08 Aug - 03:53:56 10° NW 03:59:54 17° NNW 04:05:50 10° NNE daylight
08 Aug - 06:02:49 10° NNW 06:09:21 19° NNE 06:15:46 10° ENE daylight
08 Aug - 08:07:14 10° NW 08:16:47 49° NE 08:25:58 10° ESE daylight
08 Aug - 10:12:38 10° WNW 10:21:43 45° SW 10:30:32 10° SSE daylight
08 Aug - 23:14:57 10° SSW 23:24:42 59° SE 23:34:35 10° NE daylight
09 Aug - 01:20:44 10° WSW 01:30:05 41° NW 01:39:31 10° NNE daylight
09 Aug - 03:31:54 10° NW 03:38:01 17° NNW 03:44:07 10° NNE daylight
09 Aug - 05:41:05 10° NNW 05:47:30 18° NNE 05:53:47 10° NE daylight
09 Aug - 07:45:35 10° NW 07:55:03 47° NE 08:04:12 10° ESE daylight
09 Aug - 09:50:51 10° WNW 10:00:05 48° SW 10:09:03 10° SSE daylight
09 Aug - 22:53:24 10° SSW 23:03:02 56° SE 23:12:50 10° NE daylight
10 Aug - 00:58:54 10° WSW 01:08:19 44° NW 01:17:52 10° NNE daylight
10 Aug - 03:09:53 10° NW 03:16:09 18° NNW 03:22:24 10° NNE daylight
10 Aug - 05:19:21 10° NNW 05:25:38 18° NNE 05:31:48 10° NE daylight
10 Aug - 07:23:55 10° NW 07:33:20 45° NE 07:42:25 10° ESE daylight
10 Aug - 09:29:04 10° WNW 09:38:27 52° SW 09:47:32 10° SSE daylight
10 Aug - 22:31:51 10° SSW 22:41:22 52° SE 22:51:03 10° ENE daylight
11 Aug - 00:37:05 10° WSW 00:46:34 46° NW 00:56:13 10° NE daylight
11 Aug - 02:47:51 10° NW 02:54:16 18° NNW 03:00:42 10° NNE daylight
11 Aug - 04:57:37 10° NNW 05:03:46 17° NNE 05:09:50 10° NE daylight
11 Aug - 07:02:16 10° NNW 07:11:36 42° NE 07:20:37 10° ESE daylight
11 Aug - 09:07:18 10° NW 09:16:49 55° SW 09:26:01 10° SSE daylight
11 Aug - 22:10:19 10° SSW 22:19:42 49° SE 22:29:16 10° ENE daylight
12 Aug - 00:15:15 10° WSW 00:24:49 48° NW 00:34:33 10° NE daylight
12 Aug - 02:25:50 10° WNW 02:32:24 19° NNW 02:38:59 10° NNE daylight
12 Aug - 04:35:51 10° NNW 04:41:53 17° NNE 04:47:50 10° NE daylight
12 Aug - 06:40:35 10° NNW 06:49:51 40° NE 06:58:48 10° ESE daylight
12 Aug - 08:45:32 10° NW 08:55:10 59° SW 09:04:28 10° SSE daylight
12 Aug - 21:48:48 10° SSW 21:58:03 46° SE 22:07:29 10° ENE daylight
